This is the latest recevied weather packets stored in our database for station/object KJ4YLO. If no packets are shown the sender has not sent any weather packets the latest 10 day(s).
| Time | Temp. | Humidity | Pressure | Rain* | Wind** | Luminosity | Snow |
|---|---|---|---|---|---|---|---|
| 1778111667 | 17.78° C | 98% | 1013.8 hPa | 0 mm | - | 0 W/m² | - |
| 1778111362 | 17.78° C | 98% | 1013.5 hPa | 0 mm | - | 0 W/m² | - |
| 1778111060 | 17.78° C | 98% | 1013.8 hPa | 0 mm | - | 0 W/m² | - |
| 1778110758 | 17.78° C | 98% | 1014.1 hPa | 0 mm | - | 2 W/m² | - |
| 1778110454 | 17.78° C | 98% | 1014.1 hPa | 1.78 mm | - | 6 W/m² | - |
| 1778110151 | 17.78° C | 97% | 1013.8 hPa | 3.05 mm | - | 7 W/m² | - |
| 1778109847 | 18.33° C | 97% | 1014.5 hPa | 4.32 mm | - | 3 W/m² | - |
| 1778109543 | 18.33° C | 96% | 1014.8 hPa | 4.32 mm | - | 3 W/m² | - |
| 1778109240 | 18.33° C | 96% | 1014.8 hPa | 9.65 mm | - | 0 W/m² | - |
| 1778108938 | 18.33° C | 95% | 1014.5 hPa | 18.54 mm | - | 0 W/m² | - |
| 1778108634 | 18.33° C | 94% | 1014.5 hPa | 23.88 mm | - | 3 W/m² | - |
| 1778108330 | 18.33° C | 92% | 1014.5 hPa | 22.86 mm | - | 2 W/m² | - |
| 1778108028 | 18.33° C | 90% | 1014.5 hPa | 12.7 mm | - | 2 W/m² | - |
| 1778107725 | 18.33° C | 89% | 1014.5 hPa | 9.65 mm | - | 0 W/m² | - |
| 1778107422 | 18.33° C | 87% | 1014.1 hPa | 11.94 mm | - | 5 W/m² | - |
| 1778107118 | 18.89° C | 84% | 1014.8 hPa | 36.58 mm | - | 7 W/m² | - |
| 1778106813 | 18.89° C | 82% | 1014.1 hPa | 36.58 mm | - | 5 W/m² | - |
| 1778106511 | 20° C | 79% | 1014.5 hPa | 4.83 mm | - | 1 W/m² | - |
| 1778106206 | 20.56° C | 77% | 1013.8 hPa | 0 mm | - | 0 W/m² | - |
| 1778105905 | 20.56° C | 78% | 1014.1 hPa | 0 mm | - | 0 W/m² | - |
| 1778105602 | 20.56° C | 80% | 1013.1 hPa | 0 mm | - | 4 W/m² | - |
| 1778105299 | 21.11° C | 81% | 1013.1 hPa | 0 mm | - | 11 W/m² | - |
| 1778104994 | 21.11° C | 81% | 1013.5 hPa | 0 mm | - | 13 W/m² | - |
| 1778104691 | 21.11° C | 81% | 1013.5 hPa | 0 mm | - | 10 W/m² | - |
| 1778104387 | 21.11° C | 80% | 1013.8 hPa | 0 mm | - | 6 W/m² | - |
* Rain latest hour (hover to see other rain measurements)
** Current wind speed in m/s (hover to see current wind gust speed)